Location: Newark
(50.0306°N, 2.3272°E)
Time: 23:50:11
(UTC+00:00)

Vanguard 1 - Pass Details

Date: 17 December 2019
Orbit: 651 x 3832 km, 34.2° (Epoch: 21 January)

Event Time Altitude Azimuth Distance (km) Brightness Sun altitude
Exits shadow 03:15:14 39° 202° (SSW) 4,903 13.2 -41.7°
Maximum altitude 03:22:52 47° 165° (SSE) 4,547 13.2 -40.5°
Drops below altitude 10° 03:42:12 10° 101° (E) 6,114 14.8 -37.5°
Sets 03:46:28 0° 96° (E) 6,802 15.3 -36.8°
